Hourly Data Report for October 28, 2012

All times are specified in Local Standard Time (LST). Add 1 hour to adjust for Daylight Saving Time where and when it is observed.

ST LEONARD CS
NEW BRUNSWICK

47°09'28.050" N
67°49'55.014" W
245.00 m
810I001
71019
WIY

Download Data

Hourly Data (October 2012)
Hourly Data Report for October 28, 2012
Temp Definition
°C
Dew Point Temp Definition
°C
Rel Hum Definition
%
Wind Dir Definition
10's deg

Wind Spd Definition
km/h
Visibility Definition
km
Stn Press Definition
kPa
Hmdx Definition


Wind Chill Definition


Weather Definition


TIME
00:00 7.0 2.1 71 10 2   99.18     LegendNANA
01:00 3.9 1.3 83 4 6   99.23     LegendNANA
02:00 3.7 0.3 78 3 7   99.21     LegendNANA
03:00 4.2 1.9 85 3 6   99.18     LegendNANA
04:00 3.1 1.6 90 3 2   99.21     LegendNANA
05:00 4.0 2.3 89 1 4   99.21     LegendNANA
06:00 5.0 3.7 91 2 2   99.18     LegendNANA
07:00 6.7 5.3 91 4 6   99.20     LegendNANA
08:00 7.0 5.5 90 5 4   99.23     LegendNANA
09:00 8.0 6.0 87 5 9   99.27     LegendNANA
10:00 9.4 6.5 82 5 9   99.26     LegendNANA
11:00 9.6 6.6 82 5 9   99.20     LegendNANA
12:00 10.9 7.0 77 5 9   99.19     LegendNANA
13:00 11.5 6.9 73 2 9   99.15     LegendNANA
14:00 11.7 7.0 73 1 7   99.10     LegendNANA
15:00 11.6 7.0 73 1 9   99.09     LegendNANA
16:00 11.3 6.9 74 3 11   99.08     LegendNANA
17:00 9.3 6.7 84 2 7   99.12     LegendNANA
18:00 8.5 6.5 87 4 9   99.13     LegendNANA
19:00 8.8 6.7 87 36 6   99.06     LegendNANA
20:00 9.1 7.1 87 4 9   98.99     LegendNANA
21:00 9.2 7.5 89 4 6   99.01     LegendNANA
22:00 10.0 8.0 87 5 7   99.01     LegendNANA
23:00 10.3 8.3 87 5 11   98.97     LegendNANA

Notes on Data Quality.

Legend

  • E = Estimated
  • M = Missing
  • NA = Not Available
  • ‡ = Partner data that is not subject to review by the National Climate Archives
Date modified: